TimeEDT,TemperatureF,Dew PointF,Humidity,Sea Level PressureIn,VisibilityMPH,Wind Direction,Wind SpeedMPH,Gust SpeedMPH,PrecipitationIn,Events,Conditions,WindDirDegrees,DateUTC
12:15 AM,46.4,44.6,93,30.28,1.0,West,4.6,-,N/A,,Clear,260,2013-09-29 04:15:00
12:35 AM,46.4,46.4,100,30.27,8.0,West,4.6,-,N/A,,Clear,260,2013-09-29 04:35:00
12:55 AM,46.4,46.4,100,30.27,10.0,WSW,3.5,-,N/A,,Clear,240,2013-09-29 04:55:00
1:15 AM,46.4,44.6,93,30.27,5.0,Calm,Calm,-,N/A,,Clear,0,2013-09-29 05:15:00
1:35 AM,44.6,42.8,93,30.27,3.0,WSW,3.5,-,N/A,,Clear,240,2013-09-29 05:35:00
1:55 AM,46.4,44.6,93,30.27,8.0,WSW,3.5,-,N/A,,Clear,250,2013-09-29 05:55:00
2:15 AM,44.6,44.6,100,30.26,8.0,WSW,3.5,-,N/A,,Clear,240,2013-09-29 06:15:00
2:35 AM,46.4,46.4,100,30.26,10.0,WSW,4.6,-,N/A,,Clear,250,2013-09-29 06:35:00
2:55 AM,44.6,44.6,100,30.26,2.5,Calm,Calm,-,N/A,,Clear,0,2013-09-29 06:55:00
3:15 AM,42.8,41.0,93,30.26,5.0,Calm,Calm,-,N/A,,Clear,0,2013-09-29 07:15:00
3:35 AM,44.6,44.6,100,30.25,4.0,WSW,4.6,-,N/A,,Clear,250,2013-09-29 07:35:00
3:55 AM,44.6,42.8,93,30.25,5.0,West,4.6,-,N/A,,Scattered Clouds,260,2013-09-29 07:55:00
4:15 AM,46.4,46.4,100,30.25,3.0,West,4.6,-,N/A,,Scattered Clouds,280,2013-09-29 08:15:00
4:35 AM,44.6,44.6,100,30.25,0.2,Calm,Calm,-,N/A,,Overcast,0,2013-09-29 08:35:00
4:55 AM,42.8,42.8,100,30.25,0.8,West,3.5,-,N/A,,Mostly Cloudy,260,2013-09-29 08:55:00
5:15 AM,42.8,42.8,100,30.25,1.2,Calm,Calm,-,N/A,,Scattered Clouds,0,2013-09-29 09:15:00
5:55 AM,42.8,42.8,100,30.24,0.5,West,3.5,-,N/A,,Unknown,260,2013-09-29 09:55:00
6:15 AM,41.0,39.2,93,30.24,0.5,West,3.5,-,N/A,,Unknown,260,2013-09-29 10:15:00
6:35 AM,41.0,39.2,93,30.24,0.5,Calm,Calm,-,N/A,,Unknown,0,2013-09-29 10:35:00
6:55 AM,39.2,37.4,93,30.24,0.2,West,3.5,-,N/A,,Unknown,270,2013-09-29 10:55:00
7:15 AM,42.8,41.0,93,30.24,0.2,Calm,Calm,-,N/A,,Unknown,0,2013-09-29 11:15:00
7:35 AM,44.6,42.8,93,30.24,10.0,Calm,Calm,-,N/A,,Clear,0,2013-09-29 11:35:00
7:55 AM,48.2,46.4,93,30.25,10.0,Calm,Calm,-,N/A,,Clear,0,2013-09-29 11:55:00
8:15 AM,51.8,51.8,100,30.25,10.0,Calm,Calm,-,N/A,,Clear,0,2013-09-29 12:15:00
8:35 AM,53.6,53.6,100,30.25,10.0,East,3.5,-,N/A,,Clear,90,2013-09-29 12:35:00
8:55 AM,53.6,51.8,94,30.25,10.0,Calm,Calm,-,N/A,,Clear,0,2013-09-29 12:55:00
9:15 AM,55.4,53.6,94,30.24,10.0,Calm,Calm,-,N/A,,Clear,0,2013-09-29 13:15:00
9:35 AM,55.4,53.6,94,30.24,10.0,Calm,Calm,-,N/A,,Clear,0,2013-09-29 13:35:00
9:55 AM,57.2,53.6,88,30.24,10.0,Calm,Calm,-,N/A,,Clear,0,2013-09-29 13:55:00
10:15 AM,59.0,53.6,82,30.23,10.0,SSE,3.5,-,N/A,,Clear,150,2013-09-29 14:15:00
10:35 AM,59.0,53.6,82,30.24,10.0,South,5.8,-,N/A,,Clear,170,2013-09-29 14:35:00
10:55 AM,59.0,53.6,82,30.24,10.0,SSE,4.6,-,N/A,,Clear,150,2013-09-29 14:55:00
11:15 AM,60.8,51.8,72,30.24,10.0,SSE,8.1,-,N/A,,Clear,150,2013-09-29 15:15:00
11:35 AM,59.0,51.8,77,30.24,10.0,SSE,6.9,-,N/A,,Clear,160,2013-09-29 15:35:00
11:55 AM,60.8,51.8,72,30.24,8.0,SSE,8.1,-,N/A,,Clear,160,2013-09-29 15:55:00
12:15 PM,59.0,51.8,77,30.24,10.0,SSE,9.2,-,N/A,,Clear,160,2013-09-29 16:15:00
12:35 PM,59.0,51.8,77,30.23,10.0,South,9.2,-,N/A,,Clear,190,2013-09-29 16:35:00
12:55 PM,59.0,51.8,77,30.23,10.0,South,6.9,-,N/A,,Clear,180,2013-09-29 16:55:00
1:15 PM,59.0,51.8,77,30.22,10.0,South,11.5,-,N/A,,Clear,170,2013-09-29 17:15:00
1:35 PM,59.0,51.8,77,30.22,10.0,SSW,8.1,-,N/A,,Clear,200,2013-09-29 17:35:00
1:55 PM,59.0,51.8,77,30.22,10.0,South,10.4,-,N/A,,Clear,170,2013-09-29 17:55:00
2:15 PM,60.8,50.0,68,30.21,10.0,South,5.8,-,N/A,,Clear,180,2013-09-29 18:15:00
2:35 PM,60.8,48.2,63,30.21,10.0,South,9.2,-,N/A,,Clear,170,2013-09-29 18:35:00
2:55 PM,60.8,48.2,63,30.20,10.0,SSE,6.9,-,N/A,,Clear,160,2013-09-29 18:55:00
3:15 PM,60.8,48.2,63,30.19,10.0,South,5.8,-,N/A,,Clear,170,2013-09-29 19:15:00
3:35 PM,60.8,48.2,63,30.18,10.0,South,6.9,-,N/A,,Clear,170,2013-09-29 19:35:00
3:55 PM,60.8,48.2,63,30.17,10.0,SSE,5.8,-,N/A,,Clear,150,2013-09-29 19:55:00
4:15 PM,60.8,48.2,63,30.17,10.0,South,5.8,-,N/A,,Clear,170,2013-09-29 20:15:00
4:35 PM,59.0,48.2,67,30.17,10.0,South,5.8,-,N/A,,Clear,170,2013-09-29 20:35:00
4:55 PM,59.0,48.2,67,30.16,10.0,South,5.8,-,N/A,,Clear,170,2013-09-29 20:55:00
5:15 PM,57.2,50.0,77,30.16,10.0,South,5.8,-,N/A,,Clear,170,2013-09-29 21:15:00
5:35 PM,57.2,50.0,77,30.17,10.0,South,4.6,-,N/A,,Clear,170,2013-09-29 21:35:00
5:55 PM,55.4,50.0,82,30.17,10.0,South,6.9,-,N/A,,Clear,180,2013-09-29 21:55:00
6:15 PM,55.4,50.0,82,30.17,10.0,South,3.5,-,N/A,,Clear,180,2013-09-29 22:15:00
6:35 PM,53.6,51.8,94,30.17,10.0,SSE,3.5,-,N/A,,Clear,160,2013-09-29 22:35:00
6:55 PM,51.8,51.8,100,30.17,10.0,South,4.6,-,N/A,,Clear,190,2013-09-29 22:55:00
7:15 PM,51.8,51.8,100,30.17,0.8,South,3.5,-,N/A,,Overcast,180,2013-09-29 23:15:00
7:35 PM,51.8,51.8,100,30.17,0.5,SSW,3.5,-,N/A,,Overcast,210,2013-09-29 23:35:00
7:55 PM,51.8,51.8,100,30.18,0.5,Calm,Calm,-,N/A,,Overcast,0,2013-09-29 23:55:00
8:15 PM,51.8,51.8,100,30.17,0.5,Calm,Calm,-,N/A,,Overcast,0,2013-09-30 00:15:00
8:35 PM,51.8,50.0,94,30.17,0.2,Calm,Calm,-,N/A,,Overcast,0,2013-09-30 00:35:00
8:55 PM,50.0,50.0,100,30.17,0.2,Calm,Calm,-,N/A,,Overcast,0,2013-09-30 00:55:00
9:15 PM,51.8,50.0,94,30.17,0.2,Calm,Calm,-,N/A,,Overcast,0,2013-09-30 01:15:00
9:35 PM,50.0,50.0,100,30.16,0.2,Calm,Calm,-,N/A,,Overcast,0,2013-09-30 01:35:00
9:55 PM,50.0,50.0,100,30.16,0.2,WSW,4.6,-,N/A,,Overcast,250,2013-09-30 01:55:00
10:15 PM,48.2,48.2,100,30.15,0.2,West,3.5,-,N/A,,Overcast,260,2013-09-30 02:15:00
10:35 PM,48.2,48.2,100,30.15,0.2,West,3.5,-,N/A,,Overcast,280,2013-09-30 02:35:00
10:55 PM,46.4,46.4,100,30.15,0.5,West,3.5,-,N/A,,Overcast,280,2013-09-30 02:55:00
11:15 PM,46.4,46.4,100,30.14,0.2,Calm,Calm,-,N/A,,Overcast,0,2013-09-30 03:15:00
11:35 PM,48.2,48.2,100,30.14,0.2,West,4.6,-,N/A,,Overcast,280,2013-09-30 03:35:00
11:55 PM,48.2,48.2,100,30.14,0.5,West,3.5,-,N/A,,Overcast,280,2013-09-30 03:55:00